Leesburg, FL

1:55 PM EDT on April 19, 2018 (GMT -0400)
Leesburg Regional

Weather History for KLEE - April, 2014

Change the Weather History Date:

Tuesday, April 22, 2014

  Actual Average Record
Temperature  
Mean Temperature 68 °F -  
Max Temperature 80 °F 83 °F 94 °F (1968)
Min Temperature 57 °F 60 °F 48 °F (1962)
Cooling Degree Days 2    
Growing Degree Days 18 (Base 50)    
Moisture  
Dew Point 59 °F    
Average Humidity 75    
Maximum Humidity 96    
Minimum Humidity 54    
Precipitation  
Precipitation 0.00 in - - ()
Sea Level Pressure  
Sea Level Pressure 29.94 in    
Wind  
Wind Speed 3 mph (WNW)    
Max Wind Speed 9 mph    
Max Gust Speed -    
Visibility 9 miles    
Events      
Averages and records for this station are not official NWS values.
T = Trace of Precipitation, MM = Missing Value Source: NWS Daily Summary

Daily Weather History Graph

Daily Weather History Graph

Search for Another Location

Airport or City:

Astronomy

Apr. 22, 2014 Rise Set
Actual Time 6:54 AM EDT 7:57 PM EDT
Civil Twilight 6:29 AM EDT 8:22 PM EDT
Nautical Twilight 6:00 AM EDT 8:51 PM EDT
Astronomical Twilight 5:30 AM EDT 9:21 PM EDT
Moon 2:08 AM EDT (4/22) 1:29 PM EDT (4/22)
Length of Visible Light 13h 52m
Length of Day
13h 03m
Last Quarter, 46% of the Moon is Illuminated
Apr 22
Last Quarter
Apr 29
New
May 6
First Quarter
May 14
Full
May 21
Last Quarter

Hourly Weather History & Observations

Time (EDT) Temp. Dew Point Humidity Pressure Visibility Wind Dir Wind Speed Gust Speed Precip Events Conditions
12:53 AM 61.0 °F 57.9 °F 90% 30.00 in 10.0 mi Calm Calm - N/A   Clear
1:53 AM 61.0 °F 57.0 °F 87% 29.98 in 10.0 mi Calm Calm - N/A   Clear
2:53 AM 60.1 °F 55.9 °F 86% 29.96 in 10.0 mi Calm Calm - N/A   Clear
3:53 AM 57.9 °F 55.0 °F 90% 29.96 in 10.0 mi Calm Calm - N/A   Clear
4:53 AM 59.0 °F 57.0 °F 93% 29.96 in 7.0 mi WNW 3.5 mph - N/A   Clear
5:53 AM 59.0 °F 57.9 °F 96% 29.96 in 5.0 mi Calm Calm - N/A   Clear
6:15 AM 59.0 °F 57.0 °F 93% 29.96 in 4.0 mi Calm Calm - N/A   Partly Cloudy
6:53 AM 59.0 °F 57.0 °F 93% 29.97 in 5.0 mi NW 4.6 mph - N/A   Clear
7:53 AM 61.0 °F 57.9 °F 90% 29.98 in 10.0 mi Calm Calm - N/A   Clear
8:53 AM 64.9 °F 60.1 °F 84% 29.97 in 10.0 mi West 3.5 mph - N/A   Clear
9:53 AM 69.1 °F 62.1 °F 78% 29.98 in 10.0 mi NW 8.1 mph - N/A   Clear
10:53 AM 73.0 °F 61.0 °F 66% 29.99 in 10.0 mi NW 8.1 mph - N/A   Clear
11:53 AM 75.0 °F 61.0 °F 62% 29.98 in 10.0 mi West 4.6 mph - N/A   Clear
12:53 PM 75.9 °F 59.0 °F 56% 29.96 in 10.0 mi NW 5.8 mph - N/A   Mostly Cloudy
1:53 PM 77.0 °F 60.1 °F 56% 29.94 in 10.0 mi West 5.8 mph - N/A   Overcast
2:53 PM 77.0 °F 61.0 °F 58% 29.92 in 10.0 mi West 8.1 mph - N/A   Mostly Cloudy
3:53 PM 77.0 °F 60.1 °F 56% 29.90 in 10.0 mi WNW 9.2 mph - N/A   Mostly Cloudy
4:53 PM 78.1 °F 60.1 °F 54% 29.88 in 10.0 mi West 9.2 mph - N/A   Partly Cloudy
5:53 PM 75.9 °F 60.1 °F 58% 29.88 in 10.0 mi West 9.2 mph - N/A   Clear
6:53 PM 73.9 °F 60.1 °F 62% 29.87 in 10.0 mi WNW 9.2 mph - N/A   Clear
7:53 PM 72.0 °F 60.1 °F 66% 29.86 in 10.0 mi WNW 8.1 mph - N/A   Clear
8:07 PM 71.1 °F 60.1 °F 68% 29.87 in 10.0 mi WNW 8.1 mph - N/A   Partly Cloudy
8:53 PM 69.1 °F 61.0 °F 75% 29.89 in 10.0 mi WNW 6.9 mph - N/A   Clear
9:53 PM 68.0 °F 61.0 °F 78% 29.91 in 10.0 mi WNW 8.1 mph - N/A   Clear
10:53 PM 66.9 °F 61.0 °F 81% 29.93 in 10.0 mi WNW 5.8 mph - N/A   Clear
11:53 PM 66.0 °F 61.0 °F 84% 29.93 in 10.0 mi West 5.8 mph - N/A   Clear